sat.trackr.live / text

‹ back to catalog

INTELSAT 11 (IS-11)

NORAD 32253 · 2007-044B

PAYLOAD ACTIVE UNKNOWN

§ Identity

Operator
Country
ITSO
Launch date
2007-10-05
Launch site
FRGUI
Launch vehicle
Mass (kg)
RCS (m²)
23.79

Purposes: comms

External: N2YO · Heavens-Above · Gunter

§ Orbital elements

Epoch: 2026-05-25T03:10:45.628320Z

Period
1,453.83 min
Inclination
3.5078°
Eccentricity
0.0000764
Mean motion
0.99048898 rev/d
Perigee alt
36,129.7 km
Apogee alt
36,136.2 km
Semi-major
42,511.1 km
B*
0.0000e+0
RAAN
78.9393°
Arg perigee
83.1829°
Mean anomaly
355.3828°
Rev number
6,822

§ Raw data

INTELSAT 11 (IS-11)1 32253U 07044B   26145.13247255  .00000068  00000+0  00000+0 0  99992 32253   3.5078  78.9393 0000764  83.1829 355.3828  0.99048898 68224

JSON: /api/v1/satellites/32253 · /tle

For live sub-satellite position, see the globe view (requires WebGL).

§ Visibility from observer

Set your observer location to see the next 7 days of passes ≥ 10°. The values pass through the URL so the page stays shareable.

No JS? Fill the form by hand. The geolocation button needs JavaScript.